Wind_Speed
30 31 27 27 32 34 33 34 34 34 37 41 41 40 38 37 42 44 41 37 31 29 30 28 25 20 17 22 26 26 25 26 28 25 20 19 22 22 21 19 18 18 19 19 18 18 18 16 16 16 16 17 16 16 17 18 19 18 18 19 20 21 22
31 30 29 29 31 33 33 35 32 29 33 40 43 42 38 37 42 45 43 38 33 33 30 22 23 23 19 22 25 24 27 29 28 26 22 20 23 24 22 19 17 16 18 20 20 21 20 18 17 17 17 16 15 14 15 16 17 17 18 19 20 21 22
31 30 32 33 34 34 33 32 30 30 33 38 43 46 43 41 44 44 41 38 35 35 31 21 19 25 26 27 26 24 29 32 28 25 24 20 21 24 21 18 16 14 16 20 22 23 22 20 20 19 19 18 16 14 14 14 14 15 15 16 17 18 19
33 34 37 38 38 34 30 29 32 33 33 34 39 44 46 45 46 43 38 37 35 31 27 23 22 25 26 24 25 24 26 31 29 25 24 19 19 21 19 17 18 15 15 17 20 22 22 22 22 21 20 19 17 15 14 13 13 12 12 13 14 15 16
35 39 42 41 38 35 31 31 35 37 35 35 36 38 42 45 47 46 41 42 41 33 28 28 26 26 25 23 26 27 27 30 29 25 23 21 20 21 19 18 19 17 15 16 18 21 22 22 23 23 21 19 18 16 14 12 12 11 10 11 12 13 14
39 41 40 39 38 35 33 33 33 35 37 38 39 39 40 41 45 45 44 47 48 39 32 29 27 26 25 23 26 27 28 30 30 28 29 29 27 22 20 20 18 16 16 16 17 20 23 23 23 23 23 20 18 16 13 12 11 10 10 10 11 11 12
41 38 33 37 40 36 36 37 34 32 37 41 42 41 39 39 42 43 43 48 52 46 35 26 22 24 26 27 28 26 26 29 30 31 34 34 30 24 22 23 20 17 17 18 19 20 23 25 24 24 23 20 18 17 15 13 11 10 10 10 10 11 11
40 38 32 32 37 37 38 41 39 35 37 42 44 41 36 37 41 41 40 45 51 48 38 24 17 20 25 29 31 28 28 30 32 34 36 33 28 28 28 27 24 21 20 22 23 21 22 27 25 22 21 20 18 17 16 14 12 10 10 10 10 11 11
44 43 40 35 35 39 42 43 42 39 37 38 42 42 37 36 37 35 35 40 42 43 39 31 22 20 25 28 28 26 27 29 31 33 32 29 27 31 32 28 25 24 24 25 24 21 22 27 26 23 22 21 19 18 16 14 13 12 11 10 10 11 11
51 50 49 46 42 41 44 44 41 38 36 36 39 44 43 43 41 35 34 37 37 39 39 33 29 27 27 30 28 26 26 28 30 31 29 27 29 31 30 27 26 26 26 27 25 23 23 27 29 27 24 22 21 20 18 16 15 14 13 10 10 11 12
53 50 48 46 43 40 43 46 44 39 37 34 35 43 48 47 45 42 39 39 37 36 34 29 28 32 32 33 34 30 29 31 32 31 29 29 28 28 28 27 27 27 27 28 28 27 26 27 31 30 27 25 25 23 20 18 17 16 15 12 10 10 12
49 48 46 44 45 44 42 44 44 42 40 37 36 41 44 45 48 47 43 39 36 31 27 24 23 26 30 32 34 34 33 33 30 28 27 27 26 27 29 28 27 26 27 30 31 31 30 29 31 32 30 28 27 25 23 21 19 18 16 14 12 11 12
47 46 45 45 47 44 37 37 42 43 41 39 38 37 36 39 47 47 44 43 39 33 32 31 25 23 26 27 30 34 34 31 29 28 28 27 25 26 29 29 29 31 32 34 36 36 34 31 31 31 30 28 27 27 25 23 21 20 18 17 14 12 12
45 45 46 47 47 45 38 34 37 39 40 39 40 39 35 35 39 41 42 46 47 41 37 37 33 29 29 29 31 35 34 30 30 31 32 31 28 27 29 30 33 37 38 38 39 37 36 34 31 30 29 27 28 29 27 25 23 22 20 18 16 13 12
39 41 44 47 49 47 45 38 33 35 39 37 36 35 32 32 35 37 39 43 47 48 45 41 36 33 32 34 35 36 34 30 30 32 33 35 35 33 34 37 40 42 42 41 40 37 36 36 34 32 30 30 30 31 30 27 25 24 22 20 17 15 13
40 39 40 43 47 49 50 48 42 38 35 30 27 28 28 29 32 32 35 39 41 44 45 44 42 38 38 38 38 38 35 30 32 37 38 38 40 41 42 43 44 44 44 43 41 37 35 37 38 35 33 33 33 32 31 29 27 27 25 22 19 17 16
52 43 36 34 36 45 56 58 52 46 38 30 27 29 30 30 27 24 27 30 32 33 36 39 45 47 45 44 42 38 37 35 35 39 41 41 43 44 45 45 44 44 45 45 43 41 39 39 40 38 35 35 34 33 31 31 30 29 28 24 21 19 18
59 48 39 35 35 44 55 56 51 48 45 38 36 36 35 31 28 26 25 25 27 30 32 34 41 45 45 46 46 42 39 39 40 41 41 41 44 46 46 45 46 46 48 48 47 47 46 44 42 40 37 36 36 35 34 33 32 31 30 28 24 22 21
60 52 46 45 46 46 45 43 45 48 47 41 41 44 43 38 32 26 24 25 27 29 33 38 41 43 42 44 47 48 45 43 42 42 41 39 40 43 44 44 44 44 45 48 48 47 45 43 42 41 40 39 39 38 37 36 34 32 31 30 27 25 24
60 56 53 53 54 48 40 38 43 46 45 45 47 47 44 41 38 32 27 28 29 29 33 38 41 42 43 43 45 49 51 51 49 46 43 40 39 40 42 45 44 41 42 45 45 43 40 39 39 41 42 41 42 41 38 37 36 34 33 32 29 28 26
61 59 56 58 58 52 44 43 45 45 45 48 50 49 47 45 45 43 39 37 35 32 34 36 38 40 41 41 42 45 48 53 56 54 49 46 44 41 41 44 44 42 43 45 44 42 41 40 40 43 45 45 45 44 40 38 37 36 35 33 32 30 27
55 58 58 59 60 58 53 50 48 45 44 45 47 49 51 51 51 50 48 46 42 38 37 38 40 40 40 39 37 39 43 48 54 57 56 54 51 46 43 46 47 46 47 48 47 46 44 43 43 44 46 47 47 45 42 39 39 39 37 36 34 33 29
42 50 57 61 63 62 58 53 50 48 47 47 46 45 48 51 53 54 54 54 50 45 42 43 44 44 43 42 39 38 40 43 47 53 55 55 55 54 49 48 50 51 51 52 53 51 47 45 44 45 47 48 47 45 42 41 40 40 40 39 37 36 33
41 43 49 56 60 60 58 54 51 51 53 53 49 47 47 49 50 54 56 56 53 50 47 47 48 48 47 46 43 40 41 41 41 42 44 45 49 56 58 56 55 56 56 56 59 59 54 47 44 44 44 44 43 42 42 43 42 40 41 41 40 39 36
46 44 42 45 49 52 53 51 48 48 51 53 52 51 51 51 49 50 52 52 52 51 50 48 48 50 51 49 47 44 43 43 40 38 38 40 41 47 57 63 64 62 60 60 64 66 60 54 50 48 47 46 45 45 46 48 46 42 42 42 43 43 39
45 46 42 40 43 47 48 46 45 46 46 48 51 53 53 53 52 50 49 48 49 50 51 49 47 50 54 53 50 48 45 43 42 41 41 43 42 41 44 54 66 70 66 65 67 68 65 61 59 58 56 54 52 53 53 53 50 47 46 44 46 46 41
45 45 45 43 43 46 45 42 43 46 46 47 50 53 53 53 53 53 50 47 45 44 45 46 46 50 56 57 54 52 49 46 46 47 47 46 46 44 40 41 54 68 72 69 68 68 68 67 64 63 61 58 55 55 54 54 52 51 50 47 46 46 43
50 48 48 48 45 43 41 40 42 46 49 49 49 51 52 53 52 51 47 43 42 41 40 40 42 46 54 58 58 55 52 50 49 50 52 51 48 47 44 39 42 55 69 74 73 71 70 69 68 65 61 60 59 55 52 53 54 51 50 49 48 47 44
56 54 51 51 48 43 40 40 42 46 49 50 49 48 49 51 50 48 44 41 41 42 42 42 42 43 47 53 56 56 55 53 51 51 55 56 53 50 49 45 42 45 57 70 76 76 74 73 70 66 60 58 58 54 50 53 54 52 51 51 49 47 45
58 59 55 51 50 50 47 44 44 47 49 50 50 49 48 47 45 45 44 42 43 44 44 45 44 44 44 46 49 52 54 55 54 53 56 59 58 56 53 52 50 48 50 56 63 65 65 64 63 61 57 55 54 52 51 54 54 51 51 52 50 48 46
59 59 56 50 49 53 56 53 50 50 52 52 51 48 47 46 43 42 42 43 44 44 45 45 45 45 44 43 44 47 51 53 54 54 55 58 61 61 59 56 56 55 53 54 58 58 55 54 56 57 56 55 55 54 53 55 55 52 51 53 52 49 45
63 60 57 53 50 52 57 59 56 53 53 54 51 45 41 41 40 38 39 42 44 44 45 45 45 45 45 45 47 47 48 50 52 52 52 53 56 60 60 58 57 56 53 55 60 60 53 48 50 55 56 55 54 55 55 55 53 51 51 52 52 49 45
63 60 55 54 55 55 55 57 57 54 52 51 49 44 40 39 38 37 38 41 43 43 43 44 45 45 46 47 49 49 49 50 51 51 51 51 51 53 55 56 57 57 54 54 58 57 49 44 46 54 59 56 50 49 53 56 53 48 50 51 48 45 44
56 58 53 51 56 60 59 57 54 52 51 50 48 45 42 40 38 37 37 39 40 42 43 43 42 43 44 45 46 47 48 49 50 51 51 51 48 47 48 51 54 56 56 55 54 52 49 47 47 53 60 60 52 45 47 53 54 51 51 51 47 43 42
50 50 46 44 49 55 60 62 58 52 49 48 47 44 41 38 37 37 37 38 39 41 42 42 41 42 43 43 43 43 45 48 50 50 49 48 46 44 44 47 50 52 54 55 56 57 56 51 47 49 55 58 55 47 43 46 50 50 48 45 41 40 41
50 46 42 43 47 49 52 59 62 58 53 50 47 45 43 41 38 37 36 38 40 41 41 40 40 41 42 43 43 43 45 48 49 48 47 46 45 43 43 44 45 47 52 56 59 61 59 52 46 45 48 52 52 48 43 41 42 41 39 35 34 37 40
48 44 40 43 49 49 46 49 54 55 55 51 47 46 47 46 43 40 36 36 39 41 41 40 40 40 40 41 42 43 44 45 45 45 45 45 44 43 41 41 41 41 44 49 52 51 51 49 46 45 46 46 47 45 41 39 36 32 31 33 36 39 41
Wind_Direction
242 244 240 235 237 239 238 236 234 236 232 225 223 226 227 225 227 228 228 233 244 250 248 238 228 236 256 265 267 269 272 274 269 262 249 235 234 235 235 239 240 233 226 228 233 236 238 240 241 241 241 243 243 241 240 240 241 241 241 240 241 242 244
239 242 242 236 236 239 238 237 241 241 232 225 222 223 225 224 228 233 229 228 236 242 248 242 214 213 233 246 252 259 262 265 267 264 254 239 236 237 234 236 240 235 227 226 232 238 239 236 234 235 236 238 239 239 238 237 238 238 238 238 239 241 243
237 234 239 238 234 233 234 238 239 236 231 228 222 221 223 224 229 235 231 228 235 239 244 246 221 218 229 239 249 257 262 267 268 261 253 244 240 237 231 230 234 233 230 230 235 240 242 242 239 237 237 238 236 234 233 233 234 235 237 239 240 242 243
240 234 234 236 235 232 227 228 232 230 230 232 229 227 228 227 230 234 229 226 233 233 229 231 233 233 235 246 262 268 271 275 275 264 250 238 233 230 224 224 226 223 227 234 240 244 246 250 249 244 242 241 236 231 228 228 230 232 235 238 240 241 242
241 242 239 236 236 234 226 223 229 232 230 229 231 233 234 233 235 236 229 225 228 224 213 214 223 231 236 250 264 268 271 278 282 272 255 249 245 234 221 219 222 218 219 229 241 247 248 251 255 255 251 245 237 230 225 222 224 228 232 235 238 240 241
238 243 247 245 241 236 232 229 232 239 240 231 226 230 234 236 239 239 233 231 231 226 217 217 220 222 230 247 261 266 269 272 277 274 267 269 268 248 220 210 218 224 225 230 241 251 254 255 260 264 258 248 242 234 224 221 218 219 226 233 237 240 243
235 238 243 250 249 242 237 234 231 235 240 237 232 231 232 234 239 240 236 234 235 230 222 226 232 223 222 235 246 253 259 261 264 267 268 270 269 256 230 215 221 234 236 239 244 251 256 255 256 260 256 252 249 239 228 223 217 216 223 230 236 239 242
232 230 231 243 252 251 244 238 231 226 230 236 237 233 228 231 240 244 241 239 240 237 225 217 226 224 222 233 242 244 252 259 261 261 266 270 268 261 246 231 228 234 238 242 245 248 252 249 246 248 251 253 252 242 233 229 223 222 224 226 235 237 237
227 222 220 224 238 247 248 244 236 229 226 228 232 233 228 229 237 243 243 242 246 247 234 214 208 219 224 230 240 246 249 255 259 260 264 266 261 255 249 240 235 236 240 245 246 247 246 241 237 237 243 250 251 243 237 234 232 232 229 225 233 237 236
227 224 223 222 227 236 245 249 245 236 228 224 227 229 229 233 236 236 237 237 240 248 247 228 208 208 215 220 228 242 247 247 255 262 259 249 247 245 239 234 232 235 243 248 250 252 247 237 232 232 238 244 247 243 238 235 238 239 235 228 231 238 237
232 232 230 225 222 228 239 249 253 248 237 232 230 227 229 236 237 233 236 237 233 240 252 249 224 210 211 215 220 231 243 247 253 257 244 231 234 235 223 220 227 233 243 249 252 254 251 239 232 231 234 238 242 244 240 237 238 241 239 233 231 239 241
234 233 230 222 218 223 233 243 252 255 249 243 237 232 234 234 230 233 241 240 231 227 230 240 236 218 214 219 223 232 243 250 251 247 236 230 234 228 215 216 227 234 240 245 249 253 252 243 235 234 235 238 242 244 243 239 237 239 242 238 233 241 245
235 231 228 223 218 217 224 238 246 249 250 246 240 239 242 236 230 236 242 236 231 224 213 214 219 211 210 219 229 235 239 242 244 243 240 239 237 231 222 220 227 232 233 237 244 250 253 247 241 238 240 243 246 248 250 248 241 237 241 241 236 240 248
237 231 224 223 220 210 209 227 241 245 247 247 244 244 244 240 237 238 235 231 232 230 218 212 208 201 203 212 220 229 231 233 241 247 246 237 230 232 231 227 229 232 235 239 242 245 249 248 242 239 242 247 248 250 255 256 250 242 240 241 238 241 252
234 234 225 219 218 211 203 208 223 236 243 245 246 248 246 241 239 237 232 229 231 231 226 219 210 200 202 206 210 218 226 233 240 243 242 237 231 228 227 227 229 233 237 241 241 241 244 246 243 238 240 244 246 248 254 261 260 251 243 240 240 242 250
219 226 226 219 216 213 208 205 207 219 233 241 249 260 261 252 244 237 235 236 236 234 230 227 222 213 204 203 206 211 218 226 233 231 228 229 233 233 230 230 232 236 240 244 245 245 245 245 246 244 241 241 245 249 256 263 264 257 248 243 240 241 247
217 214 215 219 220 218 218 216 209 208 214 218 229 248 259 259 252 245 245 251 254 248 237 231 231 226 214 204 201 208 216 223 232 234 229 226 230 235 236 237 238 240 244 248 249 249 247 245 248 249 246 245 247 250 255 260 261 258 255 248 240 239 244
217 211 203 206 214 221 226 224 217 216 220 214 209 219 231 239 248 258 261 260 259 252 239 231 232 232 226 213 203 204 215 224 230 235 235 231 230 232 235 239 241 242 243 245 249 249 247 245 247 249 249 248 248 250 253 257 259 259 258 255 247 240 242
216 211 202 199 206 216 223 223 219 223 229 224 213 217 222 222 228 245 252 249 249 244 232 229 231 233 233 225 213 207 209 218 225 228 228 227 228 233 236 238 240 241 240 241 246 249 246 243 243 245 248 248 248 249 252 256 258 257 257 257 252 244 242
216 213 206 205 211 214 214 216 219 220 223 224 222 223 225 219 215 220 224 230 241 240 230 229 235 238 238 236 230 221 215 216 220 223 223 223 226 234 241 244 244 242 239 238 240 242 242 241 241 242 244 246 247 249 253 255 256 255 254 254 253 248 244
215 214 211 213 218 219 215 219 225 223 221 223 224 225 223 216 212 215 217 220 230 236 233 233 236 240 243 244 242 237 230 224 223 223 221 222 224 228 235 242 244 243 241 239 237 236 237 240 243 243 242 243 245 248 251 253 254 254 254 253 253 251 245
216 214 213 215 219 221 221 223 226 224 223 223 223 224 222 216 215 218 219 220 224 228 232 237 239 241 244 244 243 241 237 232 230 229 228 225 224 225 228 234 239 241 241 241 240 239 238 236 238 240 240 241 244 247 249 249 250 252 252 251 253 253 246
217 215 214 217 221 223 225 226 225 224 223 224 224 225 225 222 220 219 220 224 227 227 229 234 238 241 244 244 242 237 234 232 231 233 235 232 226 224 226 231 235 238 241 242 241 241 238 233 231 234 237 239 242 245 247 248 247 248 249 249 251 253 247
212 214 215 217 222 227 229 229 228 226 226 227 228 228 230 231 227 222 223 229 235 236 236 235 236 239 243 245 243 237 236 239 237 235 239 238 231 225 224 227 231 235 238 242 244 244 239 231 226 227 230 235 239 241 244 248 247 246 246 247 249 250 247
207 211 213 215 219 225 228 228 228 227 227 229 230 231 234 237 236 231 230 234 238 239 239 238 237 236 238 242 244 240 239 243 244 240 241 244 241 233 227 227 229 231 234 238 244 248 245 236 231 230 232 237 241 241 244 247 248 247 246 245 245 247 245
203 206 209 211 215 221 225 226 226 227 227 228 230 231 234 236 238 238 235 235 237 238 238 238 238 235 234 237 241 241 240 242 245 245 244 244 246 246 241 233 229 229 231 235 241 246 248 244 241 241 242 243 242 242 244 245 245 246 246 243 243 244 242
200 202 205 210 216 222 223 223 225 226 226 228 230 232 233 235 237 238 236 235 237 238 237 237 238 236 233 235 239 240 239 240 242 244 245 245 244 247 250 244 234 231 230 231 235 241 245 246 246 245 246 245 240 239 241 241 240 242 243 241 240 241 238
200 200 203 208 214 219 220 220 222 225 226 227 230 232 233 235 236 237 237 237 237 237 237 236 236 234 231 233 238 240 239 239 240 242 244 246 246 245 248 250 245 237 231 230 231 234 237 241 244 244 245 245 243 239 237 236 235 238 239 239 238 236 234
205 206 208 212 214 215 216 216 218 223 226 227 229 232 233 235 237 238 237 236 235 236 238 238 237 236 233 233 237 239 238 238 240 242 243 244 246 246 246 247 247 243 237 234 233 233 233 236 239 241 239 238 240 240 234 230 231 233 235 237 236 233 232
210 213 216 220 221 219 218 218 219 222 226 227 227 229 230 232 234 235 234 234 234 235 236 237 238 239 238 237 238 238 237 237 240 242 242 242 244 246 245 245 245 244 243 242 240 239 237 233 233 235 233 231 234 237 232 226 225 227 231 234 233 232 231
213 215 216 222 226 223 221 224 227 228 230 229 229 229 229 229 232 233 233 234 234 235 235 236 237 238 239 240 240 239 238 239 242 245 244 243 244 245 245 246 246 245 246 248 248 248 247 239 231 230 230 228 228 230 227 221 220 223 227 230 231 230 229
215 216 216 225 232 228 224 225 228 230 231 232 232 233 231 231 234 235 234 234 234 236 237 237 237 237 238 240 242 243 243 244 246 249 249 248 247 247 247 248 249 249 248 247 248 251 253 247 238 235 235 234 233 232 226 218 216 220 224 227 229 228 226
214 214 217 228 236 233 227 225 225 227 230 231 232 233 233 232 234 235 234 233 234 236 237 238 239 240 241 243 245 246 247 249 251 252 253 252 251 250 250 250 250 251 251 248 249 252 252 248 242 239 238 238 240 241 231 217 213 217 221 223 225 224 224
212 212 218 231 238 235 231 228 225 227 231 232 231 231 231 231 233 234 232 232 234 236 237 238 240 242 244 245 246 248 249 251 253 253 254 255 254 253 253 252 251 253 253 251 251 252 249 245 242 240 237 236 238 243 237 222 214 215 217 217 218 220 223
206 207 214 227 236 236 233 229 227 229 233 234 231 229 229 232 235 235 233 233 235 237 238 239 241 243 245 246 248 250 250 251 253 254 255 256 256 255 255 254 253 254 255 254 254 252 247 243 243 242 237 231 231 239 241 229 219 217 216 213 211 217 225
205 210 217 224 230 233 231 229 229 230 234 236 234 232 233 236 237 236 237 237 238 239 240 241 243 245 246 246 247 250 251 253 255 256 256 257 257 256 257 257 257 258 258 257 256 252 248 248 248 241 230 226 230 238 238 226 215 212 212 211 213 221 229
208 217 225 227 228 230 230 229 229 230 233 237 238 237 237 237 237 238 240 240 240 241 242 244 246 247 248 248 248 250 253 256 258 258 258 258 257 256 258 259 262 267 264 256 250 249 248 249 243 229 220 224 230 229 222 213 209 209 211 215 222 228 232
Height
5830 5832 5835 5838 5837 5838 5841 5841 5842 5845 5848 5851 5852 5854 5857 5860 5859 5859 5862 5863 5865 5867 5868 5872 5876 5875 5875 5875 5875 5877 5878 5877 5877 5878 5882 5885 5886 5887 5889 5891 5892 5893 5894 5895 5896 5897 5898 5899 5901 5902 5903 5903 5903 5904 5904 5905 5906 5906 5906 5907 5907 5908 5910
5827 5829 5831 5833 5834 5835 5836 5837 5839 5845 5847 5848 5849 5851 5853 5855 5853 5853 5858 5861 5862 5864 5865 5869 5873 5872 5872 5871 5873 5875 5875 5875 5877 5878 5879 5882 5884 5886 5887 5888 5888 5889 5891 5893 5894 5895 5897 5898 5899 5900 5900 5901 5901 5902 5902 5902 5903 5903 5903 5904 5905 5906 5907
5824 5827 5826 5827 5828 5831 5833 5836 5839 5842 5842 5842 5844 5845 5847 5849 5848 5849 5854 5857 5859 5861 5863 5867 5870 5870 5870 5870 5871 5873 5873 5873 5876 5877 5878 5880 5882 5883 5884 5885 5886 5887 5889 5891 5892 5894 5895 5897 5897 5898 5898 5899 5899 5900 5900 5900 5900 5901 5901 5902 5902 5903 5905
5819 5821 5820 5820 5822 5826 5831 5834 5834 5835 5836 5838 5839 5841 5842 5844 5844 5846 5851 5853 5853 5857 5861 5864 5868 5869 5870 5870 5870 5871 5871 5871 5873 5875 5877 5879 5881 5882 5884 5884 5885 5886 5888 5890 5891 5893 5894 5895 5895 5896 5896 5897 5897 5898 5898 5898 5898 5898 5899 5900 5900 5901 5902
5812 5812 5813 5816 5819 5823 5827 5829 5828 5829 5831 5833 5835 5837 5838 5840 5841 5843 5846 5847 5847 5853 5858 5861 5865 5867 5868 5869 5868 5869 5870 5869 5870 5872 5874 5877 5879 5881 5883 5883 5883 5884 5886 5888 5890 5891 5892 5893 5894 5894 5894 5895 5895 5895 5896 5896 5896 5896 5896 5897 5898 5899 5900
5805 5806 5809 5812 5816 5821 5823 5825 5826 5827 5827 5829 5830 5831 5832 5835 5836 5838 5841 5841 5843 5850 5855 5858 5862 5864 5866 5867 5866 5866 5867 5867 5867 5868 5870 5873 5876 5878 5880 5880 5881 5882 5883 5885 5887 5888 5889 5891 5892 5892 5893 5893 5893 5893 5893 5894 5894 5894 5894 5895 5896 5896 5897
5803 5805 5807 5807 5810 5815 5819 5820 5822 5824 5824 5824 5824 5826 5828 5831 5831 5834 5837 5837 5838 5846 5853 5856 5859 5862 5863 5863 5863 5863 5864 5865 5865 5865 5866 5868 5871 5874 5876 5877 5878 5879 5880 5882 5884 5885 5886 5888 5890 5890 5891 5892 5891 5891 5891 5891 5892 5892 5892 5892 5893 5894 5895
5801 5803 5804 5804 5804 5808 5810 5812 5816 5819 5819 5819 5821 5824 5828 5829 5829 5832 5834 5832 5833 5841 5850 5854 5856 5859 5860 5859 5860 5861 5862 5863 5863 5863 5863 5864 5866 5869 5871 5873 5875 5876 5877 5879 5880 5882 5883 5885 5887 5888 5889 5890 5890 5890 5890 5890 5890 5889 5889 5890 5891 5892 5893
5793 5795 5797 5797 5797 5798 5801 5804 5809 5814 5816 5818 5820 5822 5825 5825 5826 5829 5830 5828 5830 5836 5844 5850 5852 5854 5856 5856 5857 5858 5859 5860 5860 5860 5861 5861 5862 5864 5866 5869 5872 5872 5873 5875 5876 5879 5881 5882 5883 5885 5886 5887 5888 5888 5888 5888 5888 5888 5887 5888 5888 5889 5890
5782 5785 5787 5789 5791 5793 5795 5798 5803 5809 5813 5815 5816 5818 5819 5818 5820 5824 5825 5826 5829 5833 5837 5844 5849 5850 5852 5854 5855 5855 5856 5857 5857 5857 5859 5858 5858 5859 5862 5865 5868 5869 5869 5871 5873 5875 5877 5879 5880 5882 5884 5885 5885 5886 5886 5887 5886 5886 5886 5886 5886 5887 5888
5777 5782 5786 5790 5791 5791 5792 5794 5798 5802 5807 5811 5812 5813 5812 5813 5816 5819 5821 5823 5827 5831 5833 5838 5843 5847 5849 5851 5854 5853 5852 5853 5854 5854 5855 5855 5855 5856 5858 5861 5864 5865 5866 5868 5870 5872 5874 5876 5877 5879 5881 5882 5882 5883 5884 5884 5884 5884 5884 5884 5884 5885 5886
5772 5779 5785 5788 5790 5790 5790 5792 5794 5796 5800 5805 5807 5806 5807 5811 5813 5813 5816 5821 5823 5826 5832 5835 5838 5843 5846 5849 5852 5851 5850 5851 5852 5852 5852 5853 5853 5853 5855 5858 5859 5862 5864 5865 5866 5868 5870 5872 5874 5876 5877 5879 5879 5880 5881 5882 5882 5882 5882 5882 5883 5883 5883
5765 5772 5777 5782 5785 5788 5789 5790 5790 5791 5794 5797 5800 5801 5804 5808 5809 5808 5814 5819 5819 5822 5827 5831 5834 5838 5842 5846 5848 5848 5847 5848 5849 5849 5849 5850 5851 5851 5853 5855 5857 5859 5861 5863 5864 5865 5867 5869 5870 5872 5874 5876 5876 5877 5878 5879 5879 5879 5879 5880 5881 5881 5881
5759 5764 5769 5774 5779 5783 5786 5786 5787 5789 5789 5790 5794 5798 5801 5803 5804 5806 5812 5815 5815 5817 5821 5826 5831 5833 5836 5840 5843 5843 5843 5844 5845 5846 5846 5846 5847 5849 5851 5853 5855 5857 5858 5860 5861 5862 5864 5865 5867 5869 5871 5873 5874 5874 5875 5876 5877 5877 5877 5877 5878 5879 5879
5754 5757 5762 5767 5771 5775 5778 5781 5784 5785 5786 5787 5790 5793 5797 5800 5800 5803 5807 5809 5810 5813 5817 5821 5827 5830 5831 5833 5836 5838 5839 5839 5841 5842 5843 5843 5844 5846 5849 5851 5852 5854 5855 5856 5858 5859 5861 5862 5864 5866 5868 5870 5871 5871 5872 5873 5874 5874 5874 5874 5875 5876 5877
5748 5751 5756 5761 5766 5770 5771 5772 5775 5779 5783 5786 5788 5789 5791 5794 5797 5799 5801 5802 5804 5809 5813 5817 5821 5824 5827 5828 5831 5834 5835 5834 5834 5835 5838 5839 5840 5842 5844 5846 5848 5850 5851 5852 5853 5856 5858 5859 5860 5862 5864 5866 5867 5868 5869 5870 5871 5870 5870 5871 5872 5873 5874
5741 5746 5752 5757 5763 5764 5760 5761 5767 5773 5778 5782 5785 5787 5788 5790 5793 5796 5797 5798 5801 5805 5809 5811 5814 5817 5820 5823 5825 5828 5830 5830 5829 5829 5832 5834 5836 5838 5840 5841 5844 5846 5847 5848 5849 5852 5854 5855 5855 5856 5859 5861 5863 5864 5865 5866 5866 5866 5867 5868 5869 5870 5871
5737 5742 5748 5752 5755 5752 5750 5757 5767 5770 5772 5776 5780 5783 5786 5788 5790 5791 5793 5796 5799 5801 5803 5805 5806 5809 5813 5818 5820 5822 5825 5827 5827 5827 5828 5830 5832 5833 5834 5836 5838 5840 5841 5843 5845 5846 5848 5850 5851 5851 5853 5856 5858 5859 5860 5861 5862 5863 5864 5865 5866 5866 5867
5731 5738 5742 5743 5743 5745 5748 5757 5765 5767 5770 5773 5775 5778 5782 5786 5787 5787 5789 5792 5793 5795 5796 5797 5798 5801 5806 5811 5815 5818 5820 5822 5823 5824 5825 5827 5828 5828 5829 5831 5833 5835 5837 5838 5840 5841 5843 5845 5846 5846 5848 5850 5853 5854 5855 5856 5858 5859 5860 5861 5862 5863 5863
5724 5730 5733 5733 5736 5742 5746 5751 5756 5760 5764 5767 5770 5774 5778 5780 5781 5781 5783 5785 5786 5788 5789 5790 5793 5796 5799 5803 5807 5811 5814 5816 5817 5818 5820 5822 5824 5825 5825 5826 5828 5830 5832 5833 5835 5837 5839 5840 5841 5842 5843 5845 5847 5849 5851 5852 5853 5855 5856 5857 5858 5859 5859
5717 5722 5726 5729 5734 5738 5741 5746 5750 5753 5756 5759 5762 5767 5771 5772 5772 5774 5775 5777 5778 5781 5783 5786 5790 5793 5795 5798 5801 5804 5808 5810 5811 5812 5814 5816 5819 5821 5821 5821 5822 5824 5825 5827 5830 5832 5834 5834 5836 5838 5839 5841 5842 5844 5846 5848 5849 5850 5851 5852 5854 5855 5856
5711 5716 5721 5725 5727 5730 5735 5742 5745 5748 5751 5753 5755 5760 5762 5764 5767 5768 5769 5771 5774 5776 5779 5781 5785 5788 5791 5794 5797 5799 5801 5803 5805 5805 5807 5810 5813 5815 5816 5816 5816 5817 5818 5819 5823 5826 5828 5829 5831 5833 5834 5836 5837 5839 5841 5843 5844 5845 5846 5848 5849 5851 5852
5706 5711 5715 5718 5720 5724 5731 5737 5741 5745 5746 5746 5750 5755 5756 5758 5762 5764 5764 5766 5770 5773 5775 5777 5779 5782 5784 5787 5789 5791 5793 5795 5797 5797 5799 5803 5807 5810 5811 5811 5811 5811 5811 5812 5814 5818 5821 5824 5825 5827 5829 5830 5832 5834 5836 5837 5838 5840 5841 5843 5845 5846 5848
5701 5705 5709 5713 5717 5721 5726 5732 5736 5738 5739 5741 5747 5749 5748 5751 5756 5758 5760 5763 5766 5769 5772 5773 5774 5777 5778 5779 5782 5785 5786 5788 5791 5792 5793 5795 5798 5801 5803 5804 5806 5805 5804 5804 5805 5809 5815 5819 5820 5820 5823 5824 5826 5828 5830 5830 5832 5834 5836 5839 5840 5842 5843
5695 5700 5704 5709 5713 5716 5720 5726 5730 5731 5733 5737 5741 5741 5742 5745 5750 5753 5757 5761 5763 5765 5768 5770 5772 5773 5773 5774 5777 5780 5782 5783 5785 5787 5789 5789 5790 5792 5793 5795 5797 5798 5799 5799 5799 5801 5807 5813 5815 5814 5816 5818 5820 5822 5822 5823 5825 5828 5831 5833 5835 5836 5837
5689 5695 5700 5704 5708 5710 5715 5721 5723 5725 5728 5731 5733 5734 5737 5740 5744 5748 5753 5756 5759 5761 5764 5767 5769 5770 5769 5770 5773 5776 5778 5779 5780 5781 5781 5781 5782 5784 5787 5788 5790 5791 5793 5794 5794 5795 5798 5802 5805 5806 5808 5811 5814 5815 5815 5816 5819 5822 5823 5826 5828 5830 5832
5684 5690 5695 5699 5703 5707 5712 5716 5717 5719 5722 5724 5726 5729 5733 5736 5738 5741 5746 5752 5755 5758 5760 5762 5764 5765 5765 5766 5768 5771 5773 5775 5774 5774 5774 5775 5777 5778 5781 5783 5784 5784 5785 5787 5788 5789 5790 5791 5793 5796 5799 5802 5805 5807 5808 5810 5812 5814 5816 5819 5822 5825 5827
5678 5683 5688 5693 5699 5704 5708 5710 5712 5714 5716 5717 5720 5724 5728 5730 5733 5736 5743 5749 5752 5753 5755 5757 5758 5759 5760 5761 5763 5765 5768 5769 5769 5769 5769 5770 5773 5774 5776 5778 5778 5777 5778 5778 5778 5778 5779 5781 5783 5785 5789 5792 5795 5798 5801 5803 5805 5807 5810 5813 5816 5819 5821
5674 5679 5683 5688 5693 5698 5702 5704 5705 5707 5709 5711 5715 5719 5722 5726 5730 5734 5740 5745 5746 5747 5749 5750 5751 5753 5754 5755 5757 5759 5762 5763 5764 5764 5764 5765 5767 5768 5769 5771 5772 5772 5771 5771 5770 5769 5768 5769 5773 5776 5780 5783 5786 5789 5792 5795 5798 5801 5804 5807 5810 5814 5816
5672 5679 5684 5687 5690 5692 5695 5697 5698 5699 5702 5704 5708 5713 5718 5722 5727 5731 5734 5737 5740 5741 5742 5743 5745 5747 5748 5750 5752 5753 5755 5757 5758 5759 5759 5760 5761 5762 5763 5764 5765 5766 5766 5766 5765 5764 5763 5763 5765 5769 5771 5773 5776 5779 5783 5786 5790 5794 5797 5800 5804 5807 5810
5671 5678 5683 5686 5686 5685 5687 5690 5692 5694 5698 5700 5703 5709 5715 5720 5723 5726 5729 5732 5733 5735 5736 5738 5739 5742 5743 5745 5746 5747 5749 5751 5752 5753 5754 5755 5755 5756 5756 5757 5758 5759 5760 5760 5758 5758 5760 5760 5759 5761 5762 5762 5764 5768 5772 5777 5781 5785 5789 5793 5797 5800 5803
5670 5676 5680 5682 5681 5679 5680 5683 5687 5691 5695 5698 5702 5708 5714 5718 5721 5723 5725 5727 5727 5729 5731 5733 5735 5737 5738 5739 5740 5742 5744 5745 5746 5747 5748 5749 5749 5750 5750 5752 5753 5752 5754 5755 5751 5751 5756 5757 5756 5757 5758 5758 5759 5762 5764 5768 5773 5778 5782 5785 5789 5792 5796
5667 5673 5677 5676 5675 5675 5677 5680 5683 5687 5691 5695 5700 5706 5710 5713 5716 5718 5719 5721 5722 5724 5726 5728 5730 5732 5732 5734 5735 5736 5738 5739 5739 5741 5742 5742 5743 5744 5745 5747 5748 5747 5748 5748 5746 5746 5750 5752 5751 5751 5752 5753 5756 5759 5759 5761 5765 5770 5774 5776 5780 5785 5789
5663 5670 5674 5673 5670 5671 5674 5677 5680 5684 5688 5692 5697 5701 5704 5707 5710 5712 5714 5716 5718 5720 5721 5723 5725 5726 5727 5728 5729 5730 5732 5733 5733 5734 5735 5736 5737 5739 5740 5741 5742 5741 5742 5742 5741 5741 5742 5742 5740 5739 5740 5744 5749 5753 5754 5756 5757 5760 5763 5766 5771 5777 5782
5659 5666 5670 5670 5666 5667 5671 5674 5678 5681 5685 5688 5693 5697 5700 5703 5705 5707 5710 5712 5714 5715 5717 5718 5720 5721 5722 5723 5724 5726 5727 5727 5727 5728 5729 5731 5732 5734 5735 5735 5736 5736 5737 5736 5734 5732 5731 5732 5733 5731 5731 5736 5742 5747 5751 5754 5755 5757 5760 5762 5765 5771 5776
5655 5659 5662 5663 5662 5664 5667 5670 5673 5677 5680 5683 5687 5691 5695 5698 5701 5702 5705 5708 5710 5711 5713 5714 5715 5716 5717 5719 5720 5721 5721 5722 5722 5724 5725 5726 5727 5728 5729 5730 5732 5731 5730 5727 5724 5721 5722 5726 5728 5727 5726 5730 5738 5744 5748 5751 5754 5755 5757 5758 5762 5767 5771
5652 5654 5656 5658 5659 5661 5664 5666 5669 5673 5676 5678 5682 5686 5690 5693 5696 5699 5701 5704 5706 5707 5709 5710 5711 5712 5713 5714 5715 5716 5716 5717 5718 5719 5720 5721 5721 5723 5724 5726 5726 5725 5720 5716 5714 5715 5717 5718 5718 5719 5722 5727 5733 5739 5743 5746 5748 5749 5752 5754 5759 5763 5767